#timestamp,LO_Frequency,Hit,StdDev 
1508994015.9,286046992.8,N
1508994035.7,286046993.2,N
1508994055.5,286046992.2,N
1508994075.4,286046990.6,N
1508994095.2,286046992.7,N
1508994115.0,286046994.8,N
1508994115.9,286046994.8,N
1508994135.8,286046994.7,N
1508994155.6,286046992.0,N
1508994175.5,286046989.2,Y
1508994195.3,286046995.7,P
1508994215.1,286046996.4,P
1508994235.9,286046991.0,P
1508994255.7,286046989.2,Y
1508994275.5,286046994.2,P
1508994295.4,286046994.8,P
1508994315.2,286046994.8,P
1508994335.0,286046988.6,Y
1508994335.9,286046988.6,P
1508994355.8,286046993.7,N
1508994375.6,286046995.7,N
1508994395.5,286046995.5,N
1508994415.3,286046995.7,N
1508994435.1,286046999.5,N
1508994455.8,286046998.5,N
1508994475.7,286047005.1,N
1508994495.5,286047007.1,N
1508994515.4,286047001.3,N
1508994535.2,286047002.0,N
1508994555.0,286047001.2,N
1508994555.9,286047001.2,N
1508994575.8,286046996.9,N
1508994595.6,286046999.1,N
1508994615.4,286047000.7,N
1508994635.3,286046998.1,N
1508994655.1,286046999.7,N
1508994656.0,286046999.7,N
1508994675.8,286047000.3,N
1508994695.7,286047001.1,N
1508994715.5,286046999.7,N
1508994735.3,286046999.7,N
1508994755.2,286047002.6,N
1508994775.9,286047002.4,N
1508994795.7,286047000.4,N
1508994815.6,286046999.2,N
1508994835.4,286046996.8,N
1508994855.2,286047002.3,N
1508994875.1,286047007.0,N
1508994876.0,286047007.0,N
1508994895.8,286047010.0,Y
1508994915.6,286047010.1,P
1508994935.5,286047008.5,N
1508994955.3,286047008.8,N
1508994975.1,286047007.4,N
1508994995.9,286047005.6,N
1508995015.7,286047003.4,N
1508995035.5,286047003.9,N
1508995055.4,286047004.0,N
1508995075.2,286047004.1,N
1508995095.0,286047001.6,N
1508995096.0,286047001.6,N
1508995115.8,286047001.5,N
1508995135.6,286047001.4,N
1508995155.5,286047004.2,N
1508995175.3,286047001.8,N
1508995195.1,286046999.7,N
1508995215.9,286046998.1,N
1508995235.7,286047002.8,N
1508995255.5,286047009.0,N
1508995275.4,286047008.1,N
1508995295.2,286047013.4,Y
1508995315.0,286047010.3,P
1508995315.9,286047010.3,P
1508995335.8,286047010.2,P
1508995355.6,286047009.9,Y
1508995375.4,286047004.2,P
1508995395.3,286047006.0,N
1508995415.1,286047007.2,P
1508995435.8,286047007.3,Y
1508995455.7,286047004.3,P
1508995475.5,286047001.6,N
1508995495.4,286047005.8,N
1508995515.2,286047004.1,N
1508995535.0,286047004.1,N
1508995535.9,286047004.1,N
1508995555.8,286047004.4,Y
1508995575.6,286047002.3,P
1508995595.4,286046999.8,N
1508995615.3,286046996.6,N
1508995635.1,286046998.7,N
1508995655.8,286046999.4,N
1508995675.7,286046995.7,N
1508995695.5,286046992.0,N
1508995715.3,286046996.4,N
1508995735.2,286046993.4,N
1508995755.0,286046994.2,N
1508995755.9,286046994.2,N
1508995775.7,286046990.7,N
1508995795.6,286046988.0,Y
1508995815.4,286046987.9,P
1508995835.3,286046987.5,N
1508995855.1,286046988.1,N
1508995856.0,286046988.1,Y
1508995875.8,286046998.8,P
1508995895.7,286046998.1,N
1508995915.5,286047003.2,N
1508995935.3,286047002.1,N
1508995955.2,286047000.6,N
1508995975.0,286047000.6,N
1508995975.9,286047000.6,N
1508995995.7,286047001.2,N
1508996015.6,286046996.9,N
1508996035.4,286046995.0,N
1508996055.2,286046999.5,N
1508996075.1,286046998.4,N
1508996076.0,286046998.4,N
1508996095.8,286046997.1,N
1508996115.7,286046997.4,N
1508996135.5,286046997.0,N
1508996155.3,286046994.8,N
1508996175.2,286046991.2,N
1508996195.9,286046988.8,Y
1508996215.7,286046991.1,P
1508996235.6,286046988.5,P
1508996255.4,286046991.1,N
1508996275.2,286046987.6,Y
1508996295.1,286046995.6,P
1508996296.0,286046995.6,N
1508996315.8,286046997.8,N
1508996335.6,286046999.0,N
1508996355.5,286046998.9,N
1508996375.3,286046999.5,N
1508996395.1,286046998.9,N
1508996415.9,286046997.5,N
1508996435.7,286046996.4,N
1508996455.6,286046990.5,Y
1508996475.4,286046993.4,P
1508996495.2,286046996.3,N
1508996515.1,286046994.7,P
1508996516.0,286046994.7,Y
1508996535.8,286046999.5,P
1508996555.6,286046998.5,N
1508996575.5,286046999.4,N
1508996595.3,286046999.2,N
1508996615.1,286046998.7,N
1508996635.9,286047001.0,N
1508996655.7,286047001.2,N
1508996675.5,286046998.1,N
1508996695.4,286047002.0,N
1508996715.2,286047002.8,N
1508996735.0,286046999.7,N
1508996736.0,286046999.7,N
1508996755.8,286047002.5,N
1508996775.6,286046999.9,N
1508996795.5,286047001.2,N
1508996815.3,286046999.4,N
1508996835.1,286046997.6,N
1508996855.9,286046997.9,N
1508996875.7,286046996.3,N
1508996895.5,286046994.9,N
1508996915.4,286046995.4,N
1508996935.2,286046996.2,N
1508996955.0,286046998.0,N
1508996955.9,286046998.0,N
1508996975.8,286046995.4,N
1508996995.6,286046998.0,N
1508997015.4,286046995.8,N
1508997035.3,286046993.3,Y
1508997055.1,286046996.5,P
1508997056.0,286046996.5,P
1508997075.8,286046998.1,N
1508997095.7,286047002.1,N
1508997115.5,286047002.3,N
1508997135.3,286047002.6,N
1508997155.2,286046998.5,N
1508997175.9,286046997.3,N
1508997195.7,286047001.7,N
1508997215.6,286047009.7,Y
1508997235.4,286047014.0,P
1508997255.2,286047015.2,N
1508997275.1,286047016.3,N
1508997276.0,286047016.3,N
1508997295.8,286047021.4,Y
1508997315.7,286047008.7,P
1508997335.5,286047008.7,P
1508997355.3,286047007.2,P
1508997375.2,286047007.9,Y
1508997395.0,286047001.0,P
1508997395.9,286047001.0,N
1508997415.7,286047000.0,N
1508997435.6,286046999.2,N
1508997455.4,286046998.2,N
1508997475.2,286046998.2,N
1508997495.1,286047000.1,N
1508997496.0,286047000.1,N
1508997515.8,286046998.8,N
1508997535.6,286046999.0,N
1508997555.5,286046997.6,N
1508997575.3,286046998.9,N
1508997595.1,286047001.1,N
